TimeBST,TemperatureF,Dew PointF,Humidity,Sea Level PressureIn,VisibilityMPH,Wind Direction,Wind SpeedMPH,Gust SpeedMPH,PrecipitationIn,Events,Conditions,WindDirDegrees,DateUTC
12:50 AM,49,46,87,29.70,22,WSW,4.6,,,,,240,2012-10-03 23:50:00
12:50 AM,48.2,46.4,93,29.68,6.2,WSW,4.6,-,N/A,,Unknown,240,2012-10-03 23:50:00
1:50 AM,48.2,46.4,93,29.68,6.2,West,4.6,-,N/A,,Mostly Cloudy,260,2012-10-04 00:50:00
2:50 AM,44.6,44.6,100,29.68,6.2,SW,3.5,-,N/A,,Partly Cloudy,230,2012-10-04 01:50:00
3:50 AM,46,45,94,29.69,12,WSW,4.6,,,,Scattered Clouds,250,2012-10-04 02:50:00
3:50 AM,46.4,44.6,93,29.68,-9999.0,WSW,4.6,-,N/A,,Clear,250,2012-10-04 02:50:00
4:50 AM,44.6,42.8,93,29.68,6.2,WSW,5.8,-,N/A,,Partly Cloudy,250,2012-10-04 03:50:00
5:50 AM,42.8,42.8,100,29.71,6.2,WSW,5.8,-,N/A,,Partly Cloudy,250,2012-10-04 04:50:00
6:50 AM,41,40,94,29.74,16,ENE,1.2,,,,Scattered Clouds,60,2012-10-04 05:50:00
6:50 AM,41.0,39.2,93,29.71,6.2,ENE,1.2,-,N/A,,Scattered Clouds,60,2012-10-04 05:50:00
7:50 AM,42.8,41.0,93,29.74,6.2,South,2.3,-,N/A,,Partly Cloudy,180,2012-10-04 06:50:00
8:50 AM,48.2,42.8,82,29.77,6.2,WSW,5.8,-,N/A,,Partly Cloudy,240,2012-10-04 07:50:00
9:50 AM,53,46,69,29.80,16,SW,8.1,,,,Scattered Clouds,230,2012-10-04 08:50:00
9:50 AM,53.6,46.4,77,29.80,6.2,SW,8.1,-,N/A,,Partly Cloudy,230,2012-10-04 08:50:00
10:50 AM,55.4,46.4,72,29.80,6.2,WSW,10.4,-,N/A,,Partly Cloudy,240,2012-10-04 09:50:00
11:50 AM,57.2,46.4,67,29.83,6.2,West,11.5,-,N/A,,Partly Cloudy,260,2012-10-04 10:50:00
12:50 PM,58,47,56,29.84,19,WSW,9.2,,,,Mostly Cloudy,250,2012-10-04 11:50:00
12:50 PM,59.0,46.4,63,29.83,6.2,WSW,9.2,-,N/A,,Mostly Cloudy,250,2012-10-04 11:50:00
1:50 PM,57.2,44.6,63,29.83,6.2,WSW,9.2,-,N/A,,Mostly Cloudy,240,2012-10-04 12:50:00
2:50 PM,57.2,48.2,72,29.83,6.2,WNW,10.4,-,N/A,,Mostly Cloudy,290,2012-10-04 13:50:00
3:50 PM,60,48,55,29.82,12,WSW,4.6,,,,Mostly Cloudy,250,2012-10-04 14:50:00
3:50 PM,59.0,48.2,67,29.80,6.2,WSW,4.6,-,N/A,,Mostly Cloudy,250,2012-10-04 14:50:00
4:50 PM,57.2,44.6,63,29.83,6.2,SSW,13.8,-,N/A,,Mostly Cloudy,210,2012-10-04 15:50:00
5:50 PM,55.4,44.6,67,29.80,6.2,SSW,15.0,-,N/A,,Mostly Cloudy,200,2012-10-04 16:50:00
6:50 PM,54,44,59,29.82,16,SSW,9.2,,,,Scattered Clouds,200,2012-10-04 17:50:00
6:50 PM,53.6,44.6,72,29.80,6.2,SSW,9.2,-,N/A,,Mostly Cloudy,200,2012-10-04 17:50:00
7:50 PM,53.6,46.4,77,29.83,6.2,South,8.1,-,N/A,,Overcast,190,2012-10-04 18:50:00
8:50 PM,53.6,46.4,77,29.80,6.2,South,6.9,-,N/A,,Mostly Cloudy,180,2012-10-04 19:50:00
9:50 PM,54,50,80,29.78,22,South,8.1,,,Rain,Light Rain,170,2012-10-04 20:50:00
9:50 PM,53.6,50.0,88,29.77,6.2,South,8.1,-,N/A,Rain,Light Rain,170,2012-10-04 20:50:00
10:50 PM,51.8,50.0,94,29.74,-9999.0,SE,4.6,-,N/A,Rain,Rain,140,2012-10-04 21:50:00
11:50 PM,51.8,51.8,100,29.68,5.0,SE,5.8,-,N/A,Rain,Rain,130,2012-10-04 22:50:00